contact:dominique.lefevre@mio.osupytheas.fr, maurice.libes@osupytheas.fr, didier.mallarino@osupytheas.fr
Project:EMSO http://www.emso-fr.org/EMSO-France
Depth: 2436.0 m
Title:EMSO Ligure Ouest : Data MII capteur AQUADOPP
Date,Latitude,Longitude,X_East,Y_North,Z_Up,Amplitude_X,Amplitude_Y,Amplitude_Z,Batterie,SoundSpeed,Heading,Pitch,Roll,Pressure,TIS,Speed,Direction
, degrees North, degrees East, m.s-1, m.s-1,m.s-1, 1, 1, 1, Volt, m.s-1, degree, degree, degree, dbar, degree_C, m.s-1, degree
2020-09-07T00:04:03,42.805,6.029,-0.035,0.005,-0.025,102.0,104.0,100.0,13.4,1505.3,323.7,-0.7,1.9,2470.432,13.32,0.035,278.1
2020-09-07T00:07:03,42.805,6.029,-0.055,-0.009,-0.054,102.0,106.0,101.0,13.3,1505.3,324.4,-0.7,1.8,2470.423,13.33,0.055,260.7
2020-09-07T00:10:03,42.805,6.029,-0.06,-0.005,-0.08,102.0,105.0,101.0,13.4,1505.3,327.7,-0.7,1.8,2470.448,13.33,0.06,265.2
2020-09-07T00:13:03,42.805,6.029,-0.032,0.005,-0.035,102.0,106.0,102.0,13.4,1505.3,325.7,-0.7,1.8,2470.386,13.33,0.032,278.9
2020-09-07T00:16:06,42.805,6.029,-0.019,0.012,-0.023,101.0,105.0,101.0,13.3,1505.4,328.1,-0.7,1.8,2470.373,13.34,0.022,302.3
2020-09-07T00:19:03,42.805,6.029,0.027,0.01,0.027,103.0,107.0,102.0,13.4,1505.4,325.7,-0.7,1.8,2470.38,13.34,0.028,69.7
2020-09-07T00:22:04,42.805,6.029,-0.068,0.021,-0.078,102.0,105.0,101.0,13.4,1505.4,328.3,-0.7,1.8,2470.401,13.34,0.071,287.2
2020-09-07T00:25:05,42.805,6.029,-0.047,-0.004,-0.037,102.0,108.0,100.0,13.4,1505.4,324.2,-0.7,1.8,2470.39,13.34,0.047,265.1
2020-09-07T00:28:03,42.805,6.029,-0.03,0.002,-0.015,107.0,107.0,102.0,13.4,1505.4,325.8,-0.7,1.8,2470.363,13.35,0.03,273.8
2020-09-07T00:31:03,42.805,6.029,0.002,0.017,0.016,101.0,107.0,101.0,13.4,1505.4,326.1,-0.7,1.8,2470.377,13.34,0.017,6.7
2020-09-07T00:34:03,42.805,6.029,-0.009,0.024,-0.021,102.0,107.0,101.0,13.3,1505.4,323.1,-0.7,1.8,2470.354,13.34,0.025,339.4
2020-09-07T00:37:03,42.805,6.029,-0.021,-0.01,-0.049,103.0,109.0,101.0,13.4,1505.4,325.5,-0.7,1.8,2470.393,13.34,0.023,244.5
2020-09-07T00:40:03,42.805,6.029,-0.006,-0.018,-0.021,103.0,108.0,101.0,13.4,1505.4,324.3,-0.7,1.8,2470.381,13.34,0.018,198.4
2020-09-07T00:43:03,42.805,6.029,0.003,0.009,-0.013,102.0,107.0,101.0,13.4,1505.4,324.8,-0.7,1.8,2470.375,13.34,0.009,18.4
2020-09-07T00:46:03,42.805,6.029,-0.013,0.0,-0.031,103.0,108.0,102.0,13.3,1505.4,325.0,-0.7,1.8,2470.383,13.34,0.013,270.0
2020-09-07T00:49:03,42.805,6.029,0.003,0.003,0.013,102.0,108.0,101.0,13.4,1505.4,327.0,-0.7,1.8,2470.373,13.34,0.004,45.0
2020-09-07T00:52:03,42.805,6.029,0.011,0.014,0.023,103.0,105.0,101.0,13.4,1505.4,327.0,-0.7,1.9,2470.341,13.35,0.017,38.2
2020-09-07T00:55:03,42.805,6.029,-0.025,-0.001,-0.003,103.0,106.0,101.0,13.4,1505.4,327.3,-0.7,1.9,2470.396,13.34,0.025,267.7
2020-09-07T00:58:03,42.805,6.029,-0.007,-0.011,-0.033,103.0,105.0,102.0,13.3,1505.4,323.8,-0.7,1.8,2470.373,13.34,0.013,212.5
2020-09-07T01:04:03,42.805,6.029,-0.02,0.014,-0.023,105.0,107.0,102.0,13.4,1505.3,323.9,-0.7,1.8,2470.401,13.32,0.024,305.0
2020-09-07T01:07:04,42.805,6.029,-0.04,0.01,-0.05,103.0,106.0,101.0,13.3,1505.3,327.9,-0.8,1.8,2470.372,13.33,0.041,284.0
2020-09-07T01:10:03,42.805,6.029,-0.032,0.014,-0.041,103.0,106.0,103.0,13.4,1505.3,327.4,-0.7,1.8,2470.367,13.33,0.034,293.6
2020-09-07T01:13:03,42.805,6.029,-0.034,0.004,-0.05,104.0,107.0,101.0,13.3,1505.4,325.7,-0.7,1.8,2470.367,13.34,0.034,276.7
2020-09-07T01:16:03,42.805,6.029,-0.022,0.001,-0.031,102.0,107.0,100.0,13.4,1505.4,327.3,-0.7,1.8,2470.381,13.34,0.022,272.6
2020-09-07T01:19:03,42.805,6.029,-0.064,-0.003,-0.045,102.0,107.0,101.0,13.4,1505.4,323.2,-0.7,1.8,2470.387,13.34,0.064,267.3
2020-09-07T01:22:03,42.805,6.029,-0.054,-0.007,-0.058,101.0,107.0,100.0,13.3,1505.4,326.6,-0.7,1.8,2470.402,13.34,0.054,262.6
2020-09-07T01:25:03,42.805,6.029,-0.024,0.012,-0.027,102.0,106.0,101.0,13.3,1505.4,324.3,-0.7,1.8,2470.349,13.34,0.026,296.6
2020-09-07T01:28:03,42.805,6.029,-0.002,-0.011,-0.02,101.0,106.0,99.0,13.4,1505.4,327.6,-0.8,1.8,2470.369,13.34,0.011,190.3
2020-09-07T01:31:05,42.805,6.029,-0.023,0.031,-0.02,102.0,106.0,99.0,13.3,1505.4,323.4,-0.7,1.8,2470.346,13.34,0.038,323.4
2020-09-07T01:34:03,42.805,6.029,0.016,0.016,0.005,106.0,105.0,100.0,13.3,1505.4,326.4,-0.8,1.8,2470.338,13.34,0.022,45.0
2020-09-07T01:37:03,42.805,6.029,-0.013,0.011,0.004,103.0,107.0,100.0,13.4,1505.4,326.3,-0.7,1.8,2470.335,13.34,0.017,310.2
2020-09-07T01:40:03,42.805,6.029,0.006,0.012,-0.039,102.0,106.0,101.0,13.3,1505.4,326.3,-0.7,1.8,2470.333,13.34,0.013,26.6
2020-09-07T01:43:03,42.805,6.029,-0.029,-0.002,-0.032,103.0,105.0,100.0,13.4,1505.4,324.6,-0.7,1.8,2470.287,13.34,0.029,266.1
2020-09-07T01:46:03,42.805,6.029,-0.017,0.029,0.001,102.0,106.0,100.0,13.4,1505.4,325.5,-0.7,1.8,2470.336,13.34,0.033,329.6
2020-09-07T01:49:03,42.805,6.029,0.001,0.02,0.009,102.0,106.0,101.0,13.4,1505.4,328.5,-0.7,1.9,2470.344,13.34,0.02,2.9
2020-09-07T01:52:03,42.805,6.029,0.014,0.021,-0.01,102.0,105.0,99.0,13.3,1505.4,325.5,-0.7,1.8,2470.309,13.34,0.025,33.7
2020-09-07T01:55:03,42.805,6.029,0.004,0.023,0.014,100.0,106.0,101.0,13.4,1505.4,324.3,-0.7,1.8,2470.315,13.34,0.023,9.9
2020-09-07T01:58:03,42.805,6.029,-0.005,0.009,-0.01,103.0,106.0,101.0,13.4,1505.4,324.6,-0.7,1.8,2470.312,13.34,0.01,330.9
2020-09-07T02:04:03,42.805,6.029,0.008,0.024,0.0,102.0,106.0,101.0,13.3,1505.3,323.8,-0.7,1.8,2470.359,13.32,0.025,18.4
2020-09-07T02:07:03,42.805,6.029,0.003,0.001,0.0,103.0,106.0,100.0,13.3,1505.3,326.0,-0.7,1.9,2470.358,13.33,0.003,71.6
2020-09-07T02:10:03,42.805,6.029,0.004,0.003,-0.028,103.0,106.0,101.0,13.4,1505.3,327.1,-0.7,1.8,2470.368,13.33,0.005,53.1
2020-09-07T02:13:03,42.805,6.029,-0.005,0.003,-0.015,102.0,106.0,100.0,13.4,1505.4,327.2,-0.7,1.8,2470.324,13.34,0.005,301.0
2020-09-07T02:16:03,42.805,6.029,-0.011,0.011,-0.019,102.0,107.0,100.0,13.4,1505.4,326.5,-0.7,1.8,2470.32,13.34,0.015,315.0
2020-09-07T02:19:03,42.805,6.029,-0.001,0.016,-0.001,103.0,107.0,101.0,13.4,1505.4,324.6,-0.7,1.8,2470.348,13.34,0.016,356.4
2020-09-07T02:22:03,42.805,6.029,0.012,0.009,0.007,102.0,107.0,100.0,13.4,1505.4,323.3,-0.7,1.8,2470.318,13.34,0.015,53.1
2020-09-07T02:25:03,42.805,6.029,0.022,-0.002,0.027,102.0,106.0,100.0,13.4,1505.4,327.0,-0.7,1.8,2470.285,13.34,0.022,95.2
2020-09-07T02:28:03,42.805,6.029,0.005,0.016,0.016,103.0,107.0,101.0,13.4,1505.4,322.5,-0.7,1.8,2470.324,13.34,0.016,17.4
2020-09-07T02:31:03,42.805,6.029,0.028,0.012,-0.011,102.0,108.0,99.0,13.4,1505.4,324.5,-0.7,1.9,2470.341,13.34,0.03,66.8
2020-09-07T02:34:03,42.805,6.029,-0.001,0.012,0.005,101.0,106.0,102.0,13.4,1505.4,328.3,-0.7,1.8,2470.321,13.34,0.012,355.2
2020-09-07T02:37:03,42.805,6.029,-0.006,0.003,0.011,101.0,108.0,100.0,13.4,1505.4,324.3,-0.7,1.8,2470.322,13.34,0.006,296.6
2020-09-07T02:40:03,42.805,6.029,0.016,0.019,0.001,102.0,107.0,100.0,13.4,1505.4,326.2,-0.7,1.8,2470.317,13.34,0.024,40.1
2020-09-07T02:43:03,42.805,6.029,0.012,0.014,-0.01,103.0,107.0,100.0,13.4,1505.4,326.0,-0.7,1.8,2470.325,13.34,0.018,40.6
2020-09-07T02:46:03,42.805,6.029,-0.016,-0.006,-0.035,101.0,107.0,100.0,13.3,1505.4,323.8,-0.7,1.8,2470.347,13.34,0.017,249.4
2020-09-07T02:49:03,42.805,6.029,-0.025,-0.003,-0.037,103.0,107.0,101.0,13.4,1505.4,325.6,-0.7,1.8,2470.324,13.34,0.025,263.2
2020-09-07T02:52:03,42.805,6.029,-0.032,0.015,-0.015,102.0,106.0,101.0,13.4,1505.4,325.0,-0.7,1.8,2470.305,13.34,0.035,295.1
2020-09-07T02:55:03,42.805,6.029,0.004,0.007,-0.015,102.0,107.0,99.0,13.4,1505.4,328.4,-0.7,1.8,2470.325,13.34,0.008,29.7
2020-09-07T02:58:03,42.805,6.029,-0.003,0.014,-0.021,102.0,105.0,100.0,13.4,1505.4,326.1,-0.7,1.8,2470.324,13.34,0.014,347.9
2020-09-07T03:04:03,42.805,6.029,-0.011,0.004,-0.011,102.0,109.0,101.0,13.4,1505.3,324.2,-0.7,1.8,2470.331,13.32,0.011,290.0
2020-09-07T03:07:03,42.805,6.029,-0.029,0.011,-0.007,102.0,106.0,101.0,13.4,1505.3,325.6,-0.7,1.8,2470.302,13.32,0.031,290.8
2020-09-07T03:10:03,42.805,6.029,-0.011,0.009,-0.022,103.0,106.0,100.0,13.4,1505.3,325.8,-0.7,1.8,2470.317,13.33,0.014,309.3
2020-09-07T03:13:03,42.805,6.029,-0.013,0.018,0.002,102.0,107.0,101.0,13.4,1505.3,326.1,-0.7,1.9,2470.341,13.33,0.022,324.2
2020-09-07T03:16:06,42.805,6.029,0.021,0.013,-0.018,103.0,106.0,101.0,13.4,1505.3,326.5,-0.7,1.8,2470.262,13.33,0.024,58.2
2020-09-07T03:19:03,42.805,6.029,-0.024,-0.006,-0.019,102.0,106.0,100.0,13.4,1505.3,326.2,-0.7,1.8,2470.318,13.33,0.024,256.0
2020-09-07T03:22:03,42.805,6.029,0.014,0.005,-0.016,102.0,107.0,100.0,13.4,1505.3,324.8,-0.7,1.9,2470.28,13.33,0.014,70.4
2020-09-07T03:25:03,42.805,6.029,0.002,0.017,-0.03,104.0,108.0,101.0,13.3,1505.3,324.8,-0.7,1.8,2470.32,13.33,0.017,6.7
2020-09-07T03:28:03,42.805,6.029,-0.009,0.01,-0.01,103.0,107.0,101.0,13.4,1505.3,328.4,-0.7,1.8,2470.305,13.33,0.013,318.0
2020-09-07T03:31:03,42.805,6.029,-0.013,0.018,-0.005,103.0,108.0,101.0,13.4,1505.3,325.9,-0.7,1.9,2470.264,13.33,0.022,324.2
2020-09-07T03:34:03,42.805,6.029,-0.022,-0.004,-0.037,102.0,107.0,100.0,13.4,1505.3,324.2,-0.7,1.9,2470.282,13.33,0.022,259.7
2020-09-07T03:37:03,42.805,6.029,-0.008,0.016,-0.03,102.0,107.0,102.0,13.4,1505.4,325.1,-0.7,1.8,2470.275,13.34,0.017,333.4
2020-09-07T03:40:03,42.805,6.029,-0.027,0.024,-0.008,101.0,108.0,100.0,13.3,1505.4,324.5,-0.7,1.8,2470.327,13.34,0.036,311.6
2020-09-07T03:43:03,42.805,6.029,-0.022,0.025,-0.024,102.0,107.0,101.0,13.3,1505.4,327.4,-0.7,1.8,2470.302,13.34,0.033,318.7
2020-09-07T03:46:03,42.805,6.029,-0.029,0.021,-0.012,103.0,109.0,100.0,13.3,1505.4,326.4,-0.7,1.8,2470.292,13.34,0.035,305.9
2020-09-07T03:49:03,42.805,6.029,-0.008,0.014,-0.052,102.0,106.0,100.0,13.4,1505.4,323.7,-0.7,1.8,2470.261,13.34,0.016,330.3
2020-09-07T03:52:03,42.805,6.029,0.0,0.013,-0.003,101.0,107.0,100.0,13.4,1505.4,323.5,-0.7,1.9,2470.332,13.34,0.013,0.0
2020-09-07T03:55:03,42.805,6.029,-0.031,0.023,-0.041,102.0,108.0,101.0,13.4,1505.4,327.3,-0.7,1.8,2470.306,13.34,0.038,306.6
2020-09-07T03:58:03,42.805,6.029,-0.023,0.005,-0.039,103.0,109.0,101.0,13.3,1505.4,326.6,-0.7,1.8,2470.285,13.34,0.023,282.3
2020-09-07T04:04:03,42.805,6.029,-0.007,0.012,-0.037,103.0,110.0,100.0,13.3,1505.3,325.2,-0.7,1.8,2470.338,13.31,0.013,329.7
2020-09-07T04:07:03,42.805,6.029,-0.064,0.004,-0.069,103.0,109.0,100.0,13.3,1505.3,326.1,-0.7,1.8,2470.259,13.32,0.064,273.6
2020-09-07T04:10:03,42.805,6.029,-0.018,0.013,-0.057,103.0,109.0,100.0,13.4,1505.3,323.2,-0.7,1.8,2470.337,13.32,0.022,305.8
2020-09-07T04:13:03,42.805,6.029,-0.028,-0.012,-0.051,102.0,109.0,100.0,13.3,1505.3,326.1,-0.7,1.8,2470.301,13.33,0.03,246.8
2020-09-07T04:16:04,42.805,6.029,-0.005,0.012,-0.005,101.0,109.0,100.0,13.4,1505.3,326.4,-0.7,1.8,2470.292,13.33,0.013,337.4
2020-09-07T04:19:03,42.805,6.029,-0.028,0.0,-0.081,101.0,108.0,100.0,13.4,1505.3,323.8,-0.7,1.8,2470.277,13.33,0.028,270.0
2020-09-07T04:22:03,42.805,6.029,-0.052,0.008,-0.06,101.0,108.0,100.0,13.4,1505.3,324.1,-0.7,1.8,2470.33,13.33,0.052,278.7
2020-09-07T04:25:03,42.805,6.029,-0.019,0.03,-0.037,102.0,109.0,102.0,13.4,1505.3,323.6,-0.7,1.9,2470.297,13.33,0.035,327.7
2020-09-07T04:28:03,42.805,6.029,-0.032,0.008,-0.047,101.0,112.0,100.0,13.3,1505.3,322.7,-0.7,1.8,2470.302,13.33,0.032,284.0
2020-09-07T04:31:03,42.805,6.029,-0.035,0.019,0.003,102.0,107.0,101.0,13.4,1505.3,328.4,-0.7,1.8,2470.295,13.33,0.039,298.5
2020-09-07T04:34:03,42.805,6.029,-0.013,-0.013,-0.038,101.0,110.0,101.0,13.4,1505.3,327.1,-0.7,1.9,2470.306,13.33,0.018,225.0
2020-09-07T04:37:03,42.805,6.029,-0.018,0.019,-0.021,102.0,108.0,101.0,13.4,1505.3,327.9,-0.7,1.8,2470.29,13.33,0.026,316.5
2020-09-07T04:40:03,42.805,6.029,-0.022,-0.003,-0.033,102.0,108.0,100.0,13.4,1505.3,328.5,-0.7,1.9,2470.31,13.33,0.022,262.2
2020-09-07T04:43:03,42.805,6.029,-0.035,-0.004,-0.075,103.0,108.0,101.0,13.4,1505.3,324.1,-0.7,1.8,2470.253,13.33,0.035,263.5
2020-09-07T04:46:05,42.805,6.029,-0.014,0.021,-0.026,103.0,107.0,101.0,13.3,1505.3,324.9,-0.7,1.8,2470.291,13.33,0.025,326.3
2020-09-07T04:49:03,42.805,6.029,-0.019,0.015,-0.044,104.0,109.0,101.0,13.4,1505.3,325.5,-0.7,1.8,2470.279,13.33,0.024,308.3
2020-09-07T04:52:03,42.805,6.029,-0.008,0.007,-0.036,103.0,109.0,101.0,13.4,1505.3,326.2,-0.7,1.8,2470.264,13.33,0.01,311.2
2020-09-07T04:55:03,42.805,6.029,-0.025,0.032,-0.025,103.0,108.0,102.0,13.3,1505.3,324.2,-0.8,1.8,2470.285,13.33,0.04,322.0
2020-09-07T04:58:03,42.805,6.029,-0.019,0.001,-0.038,103.0,109.0,101.0,13.4,1505.3,325.7,-0.7,1.8,2470.292,13.33,0.019,273.0
2020-09-07T05:04:03,42.805,6.029,0.038,0.021,0.028,104.0,109.0,101.0,13.4,1505.3,325.9,-0.7,1.8,2470.26,13.31,0.043,61.1
2020-09-07T05:07:03,42.805,6.029,0.035,0.004,0.016,101.0,109.0,101.0,13.4,1505.3,328.1,-0.7,1.8,2470.327,13.32,0.035,83.5
2020-09-07T05:10:03,42.805,6.029,0.044,0.005,0.036,102.0,111.0,101.0,13.4,1505.3,326.0,-0.7,1.8,2470.343,13.32,0.044,83.5
2020-09-07T05:13:03,42.805,6.029,0.037,0.01,0.009,102.0,108.0,101.0,13.3,1505.3,328.5,-0.7,1.8,2470.278,13.32,0.038,74.9
2020-09-07T05:16:05,42.805,6.029,0.007,0.009,-0.004,103.0,109.0,102.0,13.4,1505.3,323.8,-0.7,1.8,2470.312,13.32,0.011,37.9
2020-09-07T05:19:03,42.805,6.029,0.001,0.013,0.002,104.0,108.0,101.0,13.4,1505.3,326.6,-0.7,1.8,2470.341,13.33,0.013,4.4
2020-09-07T05:22:03,42.805,6.029,0.057,0.006,0.044,103.0,108.0,101.0,13.3,1505.3,324.9,-0.8,1.9,2470.321,13.33,0.057,84.0
2020-09-07T05:25:03,42.805,6.029,0.023,0.023,0.011,104.0,109.0,101.0,13.4,1505.3,324.8,-0.7,1.9,2470.325,13.33,0.032,45.0
2020-09-07T05:28:03,42.805,6.029,0.021,0.019,0.007,102.0,109.0,101.0,13.4,1505.3,326.2,-0.7,1.8,2470.33,13.33,0.028,47.9
2020-09-07T05:31:03,42.805,6.029,0.022,0.009,0.0,102.0,109.0,100.0,13.4,1505.3,324.7,-0.7,1.8,2470.326,13.33,0.023,67.8
2020-09-07T05:34:03,42.805,6.029,0.027,-0.008,0.0,104.0,107.0,101.0,13.4,1505.3,326.4,-0.7,1.8,2470.295,13.33,0.028,106.5
2020-09-07T05:37:03,42.805,6.029,0.046,-0.006,-0.018,101.0,108.0,102.0,13.3,1505.3,326.5,-0.7,1.8,2470.319,13.33,0.046,97.4
2020-09-07T05:40:03,42.805,6.029,0.023,0.033,-0.002,103.0,109.0,99.0,13.4,1505.3,325.9,-0.7,1.8,2470.31,13.33,0.04,34.9
2020-09-07T05:43:03,42.805,6.029,0.033,0.008,0.022,101.0,108.0,101.0,13.3,1505.3,325.9,-0.7,1.8,2470.328,13.33,0.033,76.4
2020-09-07T05:46:03,42.805,6.029,0.044,0.003,0.002,102.0,107.0,100.0,13.3,1505.3,325.7,-0.7,1.8,2470.3,13.33,0.044,86.1
2020-09-07T05:49:03,42.805,6.029,0.045,0.009,0.022,102.0,107.0,101.0,13.4,1505.3,324.7,-0.7,1.8,2470.287,13.33,0.045,78.7
2020-09-07T05:52:03,42.805,6.029,0.012,0.014,0.002,104.0,107.0,101.0,13.4,1505.3,326.8,-0.7,1.8,2470.316,13.33,0.018,40.6
2020-09-07T05:55:03,42.805,6.029,0.035,-0.009,0.006,101.0,106.0,100.0,13.4,1505.3,327.0,-0.7,1.8,2470.305,13.33,0.036,104.4
2020-09-07T05:58:03,42.805,6.029,0.016,-0.012,-0.054,101.0,107.0,100.0,13.4,1505.3,327.2,-0.7,1.8,2470.306,13.33,0.02,126.9
2020-09-07T06:04:03,42.805,6.029,0.01,0.01,-0.013,102.0,107.0,100.0,13.3,1505.3,327.3,-0.7,1.8,2470.395,13.31,0.014,45.0
2020-09-07T06:07:03,42.805,6.029,0.018,0.008,0.014,102.0,109.0,100.0,13.4,1505.3,325.9,-0.7,1.9,2470.373,13.31,0.019,66.0
2020-09-07T06:10:04,42.805,6.029,0.006,0.02,-0.013,100.0,109.0,100.0,13.4,1505.3,326.0,-0.7,1.9,2470.393,13.32,0.02,16.7
2020-09-07T06:13:03,42.805,6.029,0.014,-0.002,-0.031,102.0,107.0,102.0,13.4,1505.3,327.9,-0.7,1.9,2470.355,13.32,0.014,98.1
2020-09-07T06:16:03,42.805,6.029,0.013,0.015,-0.009,103.0,107.0,101.0,13.4,1505.3,324.7,-0.7,1.8,2470.382,13.32,0.019,40.9
2020-09-07T06:19:03,42.805,6.029,0.004,0.025,-0.027,102.0,108.0,102.0,13.4,1505.3,325.8,-0.7,1.8,2470.377,13.32,0.025,9.1
2020-09-07T06:22:03,42.805,6.029,0.006,-0.004,-0.004,102.0,107.0,101.0,13.4,1505.3,324.5,-0.7,1.8,2470.3,13.32,0.007,123.7
2020-09-07T06:25:03,42.805,6.029,-0.037,-0.017,-0.059,102.0,107.0,101.0,13.4,1505.3,324.0,-0.7,1.8,2470.379,13.33,0.04,245.3
2020-09-07T06:28:03,42.805,6.029,0.003,0.004,-0.019,102.0,107.0,100.0,13.4,1505.3,324.8,-0.7,1.8,2470.374,13.33,0.005,36.9
2020-09-07T06:31:03,42.805,6.029,-0.014,0.004,-0.034,102.0,105.0,101.0,13.3,1505.3,325.0,-0.7,1.8,2470.376,13.33,0.014,285.9
2020-09-07T06:34:03,42.805,6.029,-0.01,0.0,-0.052,104.0,107.0,101.0,13.4,1505.3,328.7,-0.7,1.9,2470.345,13.33,0.01,270.0
2020-09-07T06:37:03,42.805,6.029,0.026,0.008,-0.016,104.0,110.0,102.0,13.4,1505.3,324.4,-0.8,1.8,2470.334,13.33,0.027,72.9
2020-09-07T06:40:03,42.805,6.029,0.037,0.001,-0.009,107.0,111.0,102.0,13.3,1505.3,324.8,-0.7,1.8,2470.364,13.33,0.037,88.5
2020-09-07T06:43:03,42.805,6.029,0.012,-0.019,-0.056,103.0,107.0,100.0,13.3,1505.3,324.4,-0.7,1.8,2470.334,13.33,0.022,147.7
2020-09-07T06:46:03,42.805,6.029,0.027,0.001,0.042,102.0,107.0,100.0,13.4,1505.3,327.3,-0.7,1.9,2470.333,13.33,0.027,87.9
2020-09-07T06:49:03,42.805,6.029,0.032,-0.015,-0.025,101.0,107.0,101.0,13.4,1505.3,327.6,-0.7,1.8,2470.351,13.33,0.035,115.1
2020-09-07T06:52:03,42.805,6.029,0.014,-0.001,-0.002,101.0,107.0,101.0,13.4,1505.3,326.1,-0.7,1.9,2470.418,13.33,0.014,94.1
2020-09-07T06:55:03,42.805,6.029,0.023,-0.007,-0.018,102.0,108.0,101.0,13.3,1505.3,326.6,-0.8,1.8,2470.387,13.33,0.024,106.9
2020-09-07T06:58:03,42.805,6.029,0.038,0.0,0.017,102.0,107.0,101.0,13.4,1505.3,324.4,-0.7,1.8,2470.37,13.33,0.038,90.0
2020-09-07T07:04:03,42.805,6.029,-0.004,0.007,0.017,103.0,107.0,102.0,13.4,1505.3,323.6,-0.7,1.8,2470.355,13.31,0.008,330.3
2020-09-07T07:07:03,42.805,6.029,0.021,-0.004,-0.01,102.0,107.0,101.0,13.4,1505.3,324.1,-0.7,1.8,2470.397,13.31,0.021,100.8
2020-09-07T07:10:03,42.805,6.029,-0.005,0.003,-0.038,102.0,106.0,101.0,13.4,1505.3,325.6,-0.7,1.8,2470.404,13.32,0.005,301.0
2020-09-07T07:13:03,42.805,6.029,0.02,-0.007,-0.014,102.0,107.0,100.0,13.4,1505.3,325.3,-0.7,1.9,2470.436,13.32,0.021,109.3
2020-09-07T07:16:03,42.805,6.029,0.033,-0.004,0.016,102.0,108.0,100.0,13.4,1505.3,324.1,-0.7,1.9,2470.384,13.32,0.033,96.9
2020-09-07T07:19:03,42.805,6.029,0.018,0.009,-0.002,103.0,107.0,100.0,13.4,1505.3,327.2,-0.7,1.8,2470.361,13.32,0.02,63.4
2020-09-07T07:22:04,42.805,6.029,0.017,-0.005,0.001,102.0,106.0,102.0,13.4,1505.3,327.8,-0.7,1.8,2470.346,13.32,0.017,106.4
2020-09-07T07:25:03,42.805,6.029,0.002,0.004,0.015,102.0,106.0,100.0,13.4,1505.3,326.6,-0.7,1.8,2470.377,13.32,0.004,26.6
2020-09-07T07:28:03,42.805,6.029,0.006,-0.013,0.009,102.0,107.0,100.0,13.4,1505.3,327.0,-0.7,1.8,2470.407,13.32,0.014,155.2
2020-09-07T07:31:03,42.805,6.029,0.007,0.012,-0.007,105.0,105.0,101.0,13.4,1505.3,325.9,-0.7,1.8,2470.361,13.32,0.013,30.3
2020-09-07T07:34:03,42.805,6.029,-0.002,-0.014,-0.04,103.0,107.0,101.0,13.4,1505.3,323.0,-0.7,1.8,2470.385,13.32,0.014,188.1
2020-09-07T07:37:03,42.805,6.029,0.024,0.003,0.005,103.0,109.0,101.0,13.4,1505.3,326.5,-0.7,1.8,2470.369,13.32,0.024,82.9
2020-09-07T07:40:03,42.805,6.029,0.024,-0.002,-0.008,102.0,107.0,101.0,13.4,1505.3,326.4,-0.7,1.8,2470.382,13.32,0.024,94.8
2020-09-07T07:43:03,42.805,6.029,0.003,-0.002,-0.017,103.0,107.0,100.0,13.4,1505.3,323.8,-0.7,1.8,2470.407,13.33,0.003,123.7
2020-09-07T07:46:03,42.805,6.029,0.035,-0.004,-0.013,103.0,108.0,100.0,13.4,1505.3,323.4,-0.7,1.8,2470.407,13.32,0.035,96.5
2020-09-07T07:49:03,42.805,6.029,0.021,-0.003,0.008,102.0,107.0,101.0,13.4,1505.3,325.3,-0.7,1.8,2470.359,13.32,0.021,98.1
2020-09-07T07:52:03,42.805,6.029,0.015,0.006,0.023,103.0,107.0,101.0,13.4,1505.3,323.6,-0.7,1.9,2470.416,13.32,0.016,68.2
2020-09-07T07:55:03,42.805,6.029,0.008,-0.007,0.011,103.0,108.0,101.0,13.3,1505.3,323.7,-0.7,1.9,2470.367,13.32,0.01,131.2
2020-09-07T07:58:03,42.805,6.029,0.04,-0.012,0.01,102.0,109.0,101.0,13.4,1505.3,327.3,-0.7,1.8,2470.394,13.32,0.041,106.7
2020-09-07T08:04:03,42.805,6.029,0.034,-0.038,-0.004,102.0,107.0,101.0,13.3,1505.2,327.5,-0.7,1.8,2470.482,13.3,0.05,138.2
2020-09-07T08:07:03,42.805,6.029,0.039,-0.013,-0.03,103.0,108.0,101.0,13.4,1505.3,327.9,-0.7,1.8,2470.446,13.31,0.041,108.4
2020-09-07T08:10:03,42.805,6.029,0.04,0.003,0.034,103.0,109.0,102.0,13.4,1505.3,328.0,-0.7,1.8,2470.399,13.32,0.04,85.7
2020-09-07T08:13:03,42.805,6.029,0.044,-0.003,0.008,103.0,111.0,102.0,13.3,1505.3,327.9,-0.7,1.9,2470.451,13.32,0.044,93.9
2020-09-07T08:16:03,42.805,6.029,0.035,-0.001,-0.004,104.0,108.0,101.0,13.3,1505.3,324.7,-0.7,1.8,2470.421,13.32,0.035,91.6
2020-09-07T08:19:03,42.805,6.029,0.017,-0.008,0.003,101.0,108.0,102.0,13.4,1505.3,325.4,-0.7,1.9,2470.437,13.32,0.018,115.2
2020-09-07T08:22:03,42.805,6.029,0.009,-0.002,-0.004,102.0,108.0,100.0,13.3,1505.3,323.2,-0.7,1.8,2470.474,13.32,0.009,102.5
2020-09-07T08:25:03,42.805,6.029,0.03,-0.006,0.027,104.0,107.0,101.0,13.4,1505.3,328.0,-0.7,1.9,2470.441,13.32,0.03,101.3
2020-09-07T08:28:03,42.805,6.029,0.041,-0.012,0.0,102.0,105.0,101.0,13.4,1505.3,325.7,-0.7,1.8,2470.405,13.32,0.042,106.3
2020-09-07T08:31:03,42.805,6.029,0.035,-0.001,0.017,102.0,106.0,100.0,13.4,1505.3,324.7,-0.7,1.8,2470.438,13.32,0.035,91.6
2020-09-07T08:34:03,42.805,6.029,0.028,-0.008,0.024,100.0,107.0,101.0,13.3,1505.3,326.2,-0.7,1.8,2470.445,13.32,0.029,105.9
2020-09-07T08:37:03,42.805,6.029,0.046,-0.004,0.01,102.0,106.0,102.0,13.4,1505.3,325.3,-0.7,1.8,2470.436,13.32,0.046,95.0
2020-09-07T08:40:03,42.805,6.029,0.091,-0.007,0.028,101.0,108.0,101.0,13.4,1505.3,325.2,-0.7,1.8,2470.449,13.32,0.091,94.4
2020-09-07T08:43:03,42.805,6.029,0.072,-0.018,0.011,103.0,107.0,101.0,13.4,1505.3,327.7,-0.7,1.8,2470.453,13.32,0.074,104.0
2020-09-07T08:46:03,42.805,6.029,0.04,-0.009,0.004,103.0,107.0,100.0,13.3,1505.3,325.4,-0.7,1.8,2470.454,13.32,0.041,102.7
2020-09-07T08:49:03,42.805,6.029,0.035,-0.017,0.008,101.0,107.0,101.0,13.3,1505.3,322.5,-0.7,1.8,2470.452,13.32,0.038,115.9
2020-09-07T08:52:03,42.805,6.029,0.068,-0.01,0.053,103.0,107.0,101.0,13.4,1505.3,324.6,-0.7,1.8,2470.455,13.32,0.068,98.4
2020-09-07T08:55:03,42.805,6.029,-0.005,-0.028,-0.052,102.0,106.0,101.0,13.4,1505.3,326.5,-0.7,1.9,2470.445,13.32,0.028,190.1
2020-09-07T08:58:03,42.805,6.029,0.003,-0.012,-0.018,104.0,106.0,100.0,13.4,1505.3,323.1,-0.7,1.9,2470.446,13.32,0.012,166.0
2020-09-07T09:04:03,42.805,6.029,0.021,0.001,0.011,102.0,108.0,101.0,13.4,1505.2,325.3,-0.7,1.8,2470.457,13.3,0.021,87.3
2020-09-07T09:07:03,42.805,6.029,0.032,-0.012,0.007,103.0,107.0,101.0,13.3,1505.3,326.2,-0.7,1.8,2470.43,13.31,0.034,110.6
2020-09-07T09:10:03,42.805,6.029,0.028,-0.018,0.002,103.0,106.0,101.0,13.4,1505.3,323.4,-0.7,1.8,2470.465,13.32,0.033,122.7
2020-09-07T09:13:03,42.805,6.029,0.009,-0.013,-0.028,103.0,105.0,101.0,13.4,1505.3,325.1,-0.7,1.9,2470.457,13.32,0.015,145.3
2020-09-07T09:16:03,42.805,6.029,0.053,-0.032,0.006,103.0,106.0,100.0,13.3,1505.3,326.1,-0.7,1.9,2470.479,13.32,0.061,121.1
2020-09-07T09:19:04,42.805,6.029,0.025,-0.004,0.027,103.0,104.0,100.0,13.4,1505.3,327.1,-0.7,1.9,2470.474,13.32,0.025,99.1
2020-09-07T09:22:03,42.805,6.029,0.042,-0.011,0.005,103.0,105.0,101.0,13.4,1505.3,324.9,-0.7,1.8,2470.45,13.32,0.043,104.7
2020-09-07T09:25:03,42.805,6.029,0.032,-0.012,-0.009,103.0,105.0,101.0,13.4,1505.3,324.7,-0.7,1.9,2470.454,13.32,0.034,110.6
2020-09-07T09:28:03,42.805,6.029,0.049,-0.038,-0.02,102.0,105.0,102.0,13.3,1505.3,327.5,-0.7,1.9,2470.443,13.32,0.062,127.8
2020-09-07T09:31:04,42.805,6.029,0.008,-0.017,-0.011,103.0,105.0,100.0,13.3,1505.3,325.1,-0.7,1.8,2470.444,13.33,0.018,154.8
2020-09-07T09:34:03,42.805,6.029,0.019,-0.039,-0.014,103.0,105.0,101.0,13.4,1505.3,328.4,-0.7,1.8,2470.465,13.33,0.043,154.0
2020-09-07T09:37:03,42.805,6.029,0.04,-0.009,0.009,102.0,105.0,101.0,13.4,1505.3,325.3,-0.7,1.8,2470.428,13.33,0.041,102.7
2020-09-07T09:40:03,42.805,6.029,0.009,-0.033,-0.043,103.0,106.0,101.0,13.3,1505.3,327.4,-0.7,1.8,2470.482,13.33,0.034,164.7
2020-09-07T09:43:03,42.805,6.029,0.021,-0.028,-0.029,103.0,106.0,100.0,13.4,1505.3,326.4,-0.7,1.8,2470.422,13.33,0.035,143.1
2020-09-07T09:46:03,42.805,6.029,0.042,-0.009,-0.002,102.0,106.0,101.0,13.3,1505.3,324.1,-0.7,1.8,2470.45,13.33,0.042,102.1
2020-09-07T09:49:03,42.805,6.029,0.047,-0.034,0.001,103.0,107.0,100.0,13.4,1505.3,324.1,-0.7,1.8,2470.512,13.33,0.058,125.9
2020-09-07T09:52:03,42.805,6.029,-0.022,-0.011,-0.073,103.0,107.0,101.0,13.4,1505.3,325.7,-0.7,1.8,2470.442,13.33,0.024,243.4
2020-09-07T09:55:03,42.805,6.029,0.027,-0.016,-0.016,104.0,104.0,101.0,13.4,1505.3,324.5,-0.7,1.8,2470.447,13.33,0.031,120.7
2020-09-07T09:58:03,42.805,6.029,0.023,-0.024,-0.005,100.0,105.0,102.0,13.3,1505.3,326.1,-0.7,1.8,2470.471,13.33,0.033,136.2